Weather History for Natchitoches, LA

Change the Weather History Date:

Monday, January 13, 2014

  Actual Average Record
Temperature  
Mean Temperature 58 °F -  
Max Temperature 70 °F 54 °F 80 °F (1972)
Min Temperature 45 °F 35 °F 15 °F (1962)
Degree Days  
Heating Degree Days 6    
Growing Degree Days 8 (Base 50)    
Moisture  
Dew Point 47 °F    
Average Humidity 71    
Maximum Humidity 100    
Minimum Humidity 31    
Precipitation  
Precipitation 0.48 in - - ()
Sea Level Pressure  
Sea Level Pressure 29.94 in    
Wind  
Wind Speed 8 mph (WSW)    
Max Wind Speed 21 mph    
Max Gust Speed 26 mph    
Visibility 10 miles    
Events Rain    
Averages and records for this station are not official NWS values.
T = Trace of Precipitation, MM = Missing Value Source: NWS Daily Summary

Daily Weather History Graph

Daily Weather History Graph

Search for Another Location

Airport:

Trip Planner

Search our weather history database for the weather conditions in past years. The results will help you decide how hot, cold, wet, or windy it might be!

Date:

Astronomy

Jan. 13, 2014 Rise Set
Actual Time 7:12 AM CST 5:29 PM CST
Civil Twilight 6:46 AM CST 5:56 PM CST
Nautical Twilight 6:16 AM CST 6:26 PM CST
Astronomical Twilight 5:47 AM CST 6:55 PM CST
Moon 3:44 PM CST (1/13) 5:03 AM CST (1/13)
Length of Visible Light 11h 09m
Length of Day
10h 16m
Waxing Gibbous, 95% of the Moon is Illuminated
Jan 13
Waxing Gibbous
Jan 15
Full
Jan 23
Last Quarter
Jan 30
New
Feb 6
First Quarter

Hourly Weather History & Observations

Time (CST) Temp. Windchill Dew Point Humidity Pressure Visibility Wind Dir Wind Speed Gust Speed Precip Events Conditions
12:15 AM 59.9 °F - 47.5 °F 64% 29.98 in 10.0 mi South 8.1 mph - N/A   Light Drizzle
12:35 AM 59.5 °F - 48.7 °F 67% 29.98 in 10.0 mi South 12.7 mph 18.4 mph N/A   Light Drizzle
12:55 AM 57.2 °F - 51.1 °F 80% 29.96 in 10.0 mi South 4.6 mph - 0.01 in Rain Light Rain
1:15 AM 55.2 °F - 52.5 °F 91% 29.95 in 10.0 mi Calm Calm - 0.01 in Rain Light Rain
1:35 AM 54.9 °F - 52.5 °F 92% 29.96 in 10.0 mi South 4.6 mph - 0.01 in Rain Light Rain
1:55 AM 54.5 °F - 52.7 °F 94% 29.96 in 10.0 mi SSE 8.1 mph - 0.01 in   Overcast
2:15 AM 55.0 °F - 52.7 °F 92% 29.97 in 10.0 mi South 10.4 mph - 0.01 in Rain Rain
2:35 AM 55.0 °F - 53.2 °F 94% 29.97 in 7.0 mi South 6.9 mph - 0.06 in Rain Rain
2:55 AM 54.7 °F - 53.6 °F 96% 29.95 in 7.0 mi SSE 6.9 mph - 0.09 in Rain Rain
3:15 AM 54.5 °F - 53.6 °F 97% 29.93 in 10.0 mi ESE 6.9 mph - N/A   Overcast
3:35 AM 54.1 °F - 53.2 °F 97% 29.93 in 10.0 mi SE 6.9 mph - N/A   Light Drizzle
3:55 AM 53.6 °F - 52.9 °F 97% 29.91 in 10.0 mi SE 8.1 mph - 0.02 in Rain Light Rain
4:15 AM 53.6 °F - 52.9 °F 97% 29.94 in 10.0 mi South 5.8 mph - 0.02 in Rain Light Rain
4:35 AM 53.6 °F - 53.1 °F 98% 29.92 in 7.0 mi SSE 8.1 mph - 0.06 in Rain Rain
4:55 AM 53.8 °F - 53.6 °F 99% 29.91 in 7.0 mi SE 9.2 mph - 0.12 in Rain Rain
5:15 AM 54.5 °F - 54.5 °F 100% 29.90 in 7.0 mi SE 6.9 mph - 0.04 in Rain Rain
5:35 AM 56.1 °F - 55.9 °F 99% 29.92 in 7.0 mi SSW 4.6 mph - 0.09 in Rain Rain
5:55 AM 57.4 °F - 56.7 °F 97% 29.89 in 5.0 mi SSE 8.1 mph - 0.18 in Rain Rain
6:15 AM 57.2 °F - 56.5 °F 97% 29.85 in 10.0 mi SE 8.1 mph - 0.02 in Rain Light Rain
6:35 AM 57.2 °F - 56.3 °F 97% 29.86 in 7.0 mi Calm Calm - 0.04 in Rain Light Rain
6:55 AM 56.7 °F - 56.3 °F 99% 29.86 in 10.0 mi SSE 3.5 mph - 0.04 in   Drizzle
7:15 AM 56.8 °F - 56.5 °F 99% 29.86 in 10.0 mi SSE 6.9 mph - 0.01 in   Overcast
7:35 AM 56.7 °F - 56.3 °F 99% 29.88 in 10.0 mi SSE 5.8 mph - 0.01 in Rain Light Rain
7:55 AM 56.7 °F - 56.5 °F 99% 29.89 in 10.0 mi Calm Calm - 0.01 in   Overcast
8:15 AM 57.4 °F - 57.2 °F 99% 29.88 in 10.0 mi SSE 5.8 mph - N/A   Overcast
8:35 AM 58.1 °F - 57.6 °F 98% 29.89 in 10.0 mi Calm Calm - N/A   Overcast
8:55 AM 58.5 °F - 58.1 °F 99% 29.89 in 10.0 mi SSE 3.5 mph - N/A   Overcast
9:15 AM 58.5 °F - 58.1 °F 99% 29.89 in 10.0 mi Calm Calm - N/A   Overcast
9:35 AM 59.0 °F - 58.3 °F 97% 29.90 in 10.0 mi Calm Calm - N/A   Overcast
9:55 AM 60.1 °F - 59.2 °F 97% 29.90 in 10.0 mi South 3.5 mph - N/A   Overcast
10:15 AM 61.0 °F - 59.5 °F 95% 29.91 in 10.0 mi South 4.6 mph - N/A   Overcast
10:35 AM 61.3 °F - 59.7 °F 94% 29.90 in 10.0 mi South 4.6 mph - N/A   Overcast
10:55 AM 61.7 °F - 59.9 °F 94% 29.90 in 10.0 mi South 4.6 mph - N/A   Overcast
11:15 AM 62.1 °F - 60.3 °F 94% 29.89 in 10.0 mi SSW 3.5 mph - N/A   Overcast
11:35 AM 63.3 °F - 60.8 °F 91% 29.88 in 10.0 mi SSW 3.5 mph - N/A   Overcast
11:55 AM 66.7 °F - 62.4 °F 86% 29.87 in 10.0 mi West 8.1 mph - N/A   Mostly Cloudy
12:15 PM 68.9 °F - 62.4 °F 80% 29.86 in 10.0 mi West 9.2 mph - N/A   Mostly Cloudy
12:35 PM 69.1 °F - 60.8 °F 75% 29.85 in 10.0 mi West 11.5 mph - N/A   Scattered Clouds
12:55 PM 69.8 °F - 59.9 °F 71% 29.84 in 10.0 mi WNW 15.0 mph 19.6 mph N/A   Scattered Clouds
1:15 PM 69.8 °F - 58.3 °F 67% 29.84 in 10.0 mi WNW 15.0 mph 20.7 mph N/A   Mostly Cloudy
1:35 PM 68.9 °F - 57.6 °F 67% 29.83 in 10.0 mi WNW 10.4 mph - N/A   Scattered Clouds
1:55 PM 69.8 °F - 54.5 °F 58% 29.84 in 10.0 mi WNW 18.4 mph 21.9 mph N/A   Clear
2:15 PM 68.9 °F - 53.4 °F 58% 29.85 in 10.0 mi WNW 17.3 mph 25.3 mph N/A   Clear
2:35 PM 70.0 °F - 45.3 °F 41% 29.85 in 10.0 mi NW 20.7 mph 26.5 mph N/A   Clear
2:55 PM 69.8 °F - 44.4 °F 40% 29.87 in 10.0 mi NNW 15.0 mph 18.4 mph N/A   Clear
3:15 PM 69.3 °F - 41.2 °F 36% 29.88 in 10.0 mi NW 13.8 mph 26.5 mph N/A   Clear
3:35 PM 68.9 °F - 38.1 °F 32% 29.89 in 10.0 mi NW 15.0 mph - N/A   Clear
3:55 PM 68.0 °F - 36.1 °F 31% 29.90 in 10.0 mi NW 15.0 mph 25.3 mph N/A   Clear
4:15 PM 67.1 °F - 35.8 °F 31% 29.91 in 10.0 mi NW 15.0 mph 20.7 mph N/A   Clear
4:35 PM 65.5 °F - 34.5 °F 32% 29.92 in 10.0 mi NW 15.0 mph 21.9 mph N/A   Clear
4:55 PM 64.6 °F - 33.8 °F 32% 29.93 in 10.0 mi NW 15.0 mph 20.7 mph N/A   Clear
5:15 PM 62.4 °F - 34.7 °F 36% 29.93 in 10.0 mi NW 10.4 mph 16.1 mph N/A   Clear
5:35 PM 59.2 °F - 35.6 °F 41% 29.94 in 10.0 mi WNW 8.1 mph - N/A   Clear
5:55 PM 57.6 °F - 36.5 °F 45% 29.95 in 10.0 mi WNW 8.1 mph - N/A   Clear
6:15 PM 56.8 °F - 35.1 °F 44% 29.96 in 10.0 mi WNW 6.9 mph - N/A   Clear
6:35 PM 53.4 °F - 36.7 °F 53% 29.98 in 10.0 mi WNW 5.8 mph - N/A   Clear
6:55 PM 55.2 °F - 34.9 °F 46% 29.98 in 10.0 mi NW 8.1 mph - N/A   Clear
7:15 PM 53.8 °F - 34.2 °F 47% 30.00 in 10.0 mi NW 5.8 mph - N/A   Clear
7:35 PM 54.7 °F - 34.3 °F 46% 30.01 in 10.0 mi NW 8.1 mph - N/A   Clear
7:55 PM 54.5 °F - 32.9 °F 44% 30.02 in 10.0 mi WNW 9.2 mph - N/A   Clear
8:15 PM 54.5 °F - 32.2 °F 43% 30.02 in 10.0 mi WNW 9.2 mph - N/A   Clear
8:35 PM 53.8 °F - 32.0 °F 44% 30.03 in 10.0 mi NW 9.2 mph - N/A   Clear
8:55 PM 50.9 °F - 32.5 °F 49% 30.04 in 10.0 mi NW 9.2 mph - N/A   Clear
9:15 PM 51.3 °F - 32.7 °F 49% 30.05 in 10.0 mi WNW 8.1 mph - N/A   Clear
9:35 PM 52.3 °F - 32.0 °F 46% 30.06 in 10.0 mi WNW 9.2 mph - N/A   Clear
9:55 PM 49.5 °F - 32.2 °F 51% 30.06 in 10.0 mi WNW 6.9 mph - N/A   Clear
10:15 PM 49.3 °F - 32.2 °F 52% 30.06 in 10.0 mi WNW 9.2 mph - N/A   Clear
10:35 PM 48.9 °F - 32.0 °F 52% 30.07 in 10.0 mi WNW 9.2 mph - N/A   Clear
10:55 PM 48.2 °F - 32.0 °F 54% 30.08 in 10.0 mi WNW 8.1 mph - N/A   Clear
11:15 PM 47.5 °F - 32.0 °F 55% 30.08 in 10.0 mi WNW 8.1 mph - N/A   Clear
11:35 PM 47.1 °F - 31.8 °F 55% 30.09 in 10.0 mi WNW 6.9 mph - N/A   Clear
11:55 PM 45.3 °F 44.0 °F 31.6 °F 59% 30.08 in 10.0 mi WNW 3.5 mph - N/A   Clear